#timestamp,LO_Frequency,Hit,StdDev 
1502362815.1,286046999.9,N,1.0
1502362835.9,286047000.1,N,1.0
1502362855.7,286047000.3,N,1.0
1502362875.5,286046998.1,N,1.0
1502362895.4,286046998.6,N,1.0
1502362915.2,286047000.3,N,1.0
1502362935.1,286047000.8,N,1.0
1502362936.0,286047000.8,N,1.1
1502362955.8,286047000.6,N,1.1
1502362975.6,286047000.3,N,1.0
1502362995.5,286047001.2,N,1.1
1502363015.3,286047000.8,N,1.1
1502363035.2,286046998.1,N,1.1
1502363055.9,286047000.7,N,1.1
1502363075.7,286047000.8,N,1.1
1502363095.6,286046998.2,N,1.1
1502363115.4,286042159.8,Y,0.0
1502363135.3,286046998.6,P,0.5
1502363155.1,286047000.0,N,0.6
1502363156.0,286047000.0,N,0.6
1502363175.8,286047000.4,N,0.6
1502363195.7,286047001.1,N,0.8
1502363245.6,286046998.4,E,nan
1502363255.5,286047000.0,N,0.0
1502363275.3,286047002.3,P,1.2
1502363295.1,286047002.3,N,1.1
1502363315.9,286047002.5,N,1.0
1502363335.7,286047002.4,N,1.0
1502363355.6,286047000.1,N,1.1
1502363375.4,286046999.7,N,1.2
1502363395.2,286047002.8,N,1.2
1502363415.1,286047000.0,N,1.3
1502363416.0,286047000.0,N,1.3
1502363435.8,286047002.6,N,1.3
1502363455.7,286047000.2,N,1.3
1502363475.5,286047000.2,N,1.2
1502363495.3,286046999.7,N,1.2
1502363515.2,286046999.8,N,1.2
1502363535.0,286047002.8,N,1.3
1502363535.9,286047002.8,N,1.3
1502363555.8,286047001.5,N,1.3
1502363575.6,286047002.5,N,1.3
1502363595.4,286047002.5,N,1.3
1502363615.3,286047002.7,N,1.3
1502363635.1,286047002.5,N,1.3
1502363655.9,286047000.1,N,1.3
1502363675.7,286047000.2,N,1.3
1502363695.5,286047002.8,N,1.3
1502363715.4,286047001.6,N,1.2
1502363735.2,286047001.6,N,1.2
1502363755.1,286047001.5,N,1.2
1502363756.0,286047001.5,N,1.2
1502363775.8,286046999.7,N,1.2
1502363795.6,286047002.7,N,1.2
1502363815.5,286047002.6,N,1.2
1502363835.3,286047002.7,N,1.2
1502363855.1,286047002.3,N,1.2
1502363875.9,286047002.8,N,1.2
1502363895.7,286046999.7,N,1.2
1502363915.6,286047000.1,N,1.2
1502363935.4,286047002.0,N,1.2
1502363955.2,286046999.8,N,1.2
1502363975.1,286046999.9,N,1.2
1502363976.0,286046999.9,N,1.2
1502363995.8,286047000.1,N,1.2
1502364015.7,286047002.1,N,1.2
1502364035.5,286047002.7,N,1.2
1502364055.3,286047001.6,N,1.2
1502364075.2,286047001.9,N,1.1
1502364095.0,286047002.5,N,1.1
1502364095.9,286047002.5,N,1.1
1502364115.8,286047000.1,N,1.2
1502364135.6,286047000.3,N,1.2
1502364155.4,286046999.8,N,1.2
1502364175.3,286047001.1,N,1.1
1502364195.1,286047000.1,N,1.1
1502364215.9,286047000.4,N,1.1
1502364235.7,286047000.1,N,1.1
1502364255.5,286047000.6,N,1.1
1502364275.4,286047002.6,N,1.2
1502364295.2,286047003.8,Y,0.0
1502364315.1,286047001.5,P,0.2
1502364316.0,286047001.5,P,0.1
1502364335.8,286047002.7,P,0.6
1502364355.6,286046998.6,N,1.4
1502364375.5,286046998.8,N,1.5
1502364395.3,286046998.2,N,1.6
1502364415.2,286047001.1,N,1.6
1502364435.9,286046998.9,N,1.5
1502364455.7,286046998.9,N,1.5
1502364475.6,286046998.8,N,1.5
1502364495.4,286046998.4,N,1.5
1502364515.2,286046999.5,N,1.5
1502364535.1,286046999.3,N,1.4
1502364536.0,286046999.3,N,1.4
1502364555.8,286046997.3,N,1.5
1502364575.7,286046995.0,Y,0.0
1502364595.5,286046998.0,P,0.8
1502364615.3,286046997.8,N,0.8
1502364635.2,286046995.4,P,1.5
1502364655.0,286046995.3,Y,0.0
1502364655.9,286046995.3,P,1.2
1502364675.8,286046999.5,N,1.7
1502364695.6,286046997.0,N,1.5
1502364715.4,286046997.2,N,1.3
1502364735.3,286046996.9,N,1.2
1502364755.1,286046996.9,N,1.2
1502364775.9,286046997.3,N,1.1
1502364795.7,286046997.7,N,1.0
1502364815.5,286046997.9,N,1.0
1502364835.4,286046995.0,Y,0.0
1502364855.2,286047000.8,P,1.7
1502364875.1,286047001.1,N,1.7
1502364876.0,286047001.1,N,1.6
1502364895.8,286046998.9,N,1.5
1502364915.6,286046999.3,N,1.4
1502364935.5,286046996.6,N,1.7
1502364955.3,286046998.7,N,1.6
1502364975.2,286046999.4,N,1.5
1502364995.9,286046998.8,N,1.4
1502365015.7,286046998.8,N,1.4
1502365035.6,286046999.5,N,1.3
1502365055.4,286046996.5,N,1.5
1502365075.2,286046997.2,N,1.5
1502365095.1,286046997.4,N,1.5
1502365096.0,286046997.4,N,1.5
1502365115.8,286046997.2,N,1.5
1502365135.7,286046999.2,N,1.4
1502365155.5,286046999.3,N,1.4
1502365175.3,286046996.7,N,1.4
1502365195.2,286046996.9,N,1.4
1502365215.0,286046997.5,N,1.4
1502365215.9,286046997.5,N,1.4
1502365235.8,286046995.0,Y,0.0
1502365255.6,286046997.1,P,0.6
1502365275.4,286046999.1,N,0.8
1502365295.3,286046999.4,N,0.9
1502365315.1,286046999.5,N,0.9
1502365335.9,286046997.2,Y,0.0
1502365355.7,286046996.5,P,1.1
1502365375.5,286046996.5,P,1.0
1502365395.4,286046998.8,N,1.1
1502365415.2,286046999.2,N,1.2
1502365435.1,286046998.5,N,1.1
1502365436.0,286046998.5,N,1.0
1502365455.8,286046998.2,N,1.0
1502365475.6,286047000.6,N,1.2
1502365495.5,286047000.6,N,1.3
1502365515.3,286046998.5,N,1.3
1502365535.1,286046996.7,N,1.3
1502365555.9,286046999.0,N,1.3
1502365575.7,286046999.3,N,1.2
1502365595.6,286046998.6,N,1.2
1502365615.4,286046999.4,N,1.2
1502365635.2,286046999.5,N,1.2
1502365655.1,286046998.7,N,1.1
1502365656.0,286046998.7,N,1.1
1502365675.8,286046999.6,N,1.1
1502365695.7,286046999.6,N,1.1
1502365715.5,286046998.9,N,1.1
1502365735.3,286046998.4,N,1.0
1502365755.2,286046998.3,N,1.0
1502365775.0,286046998.8,N,1.0
1502365775.9,286046998.8,N,1.0
1502365795.8,286046999.3,N,1.0
1502365815.6,286046996.6,Y,0.0
1502365835.4,286046998.4,P,0.2
1502365855.3,286046999.4,P,0.4
1502365875.1,286046999.6,N,0.5
1502365895.9,286046997.2,Y,0.0
1502365915.7,286046996.5,P,1.3
1502365935.5,286046996.9,N,1.1
1502365955.4,286046997.1,N,1.0
1502365975.2,286046999.6,N,1.2
1502365995.0,286046996.5,N,1.2
1502365996.0,286046996.5,N,1.2
1502366015.8,286046999.3,N,1.3
1502366035.6,286046999.5,N,1.3
1502366055.5,286046996.7,N,1.3
1502366075.3,286046996.7,N,1.3
1502366095.1,286046995.4,Y,0.0
1502366115.9,286046996.5,P,0.6
1502366135.7,286047011.9,P,7.0
1502366155.6,286046997.1,N,6.4
1502366175.4,286046996.9,N,6.0
1502366195.2,286046998.8,N,5.5
1502366215.1,286046999.3,N,5.1
1502366216.0,286046999.3,N,4.7
1502366235.8,286046998.3,N,4.5
1502366255.7,286046999.4,N,4.3
1502366275.5,286046998.2,N,4.1
1502366295.3,286046998.8,N,3.9
1502366315.2,286046999.6,N,3.7
1502366335.0,286046998.9,N,3.6
1502366335.9,286046998.9,N,3.5
1502366355.8,286046998.6,N,3.4
1502366375.6,286047000.5,N,3.3
1502366395.4,286047000.0,N,3.2
